Weather History for Clarinda, IA

Change the Weather History Date:

Monday, November 11, 2013

  Actual Average Record
Temperature  
Mean Temperature 34 °F -  
Max Temperature 48 °F 50 °F 73 °F (2005)
Min Temperature 19 °F 31 °F 17 °F (1997)
Degree Days  
Heating Degree Days 32    
Moisture  
Dew Point 27 °F    
Average Humidity 74    
Maximum Humidity 93    
Minimum Humidity 64    
Precipitation  
Precipitation 0.00 in - - ()
Sea Level Pressure  
Sea Level Pressure 30.38 in    
Wind  
Wind Speed 11 mph (North)    
Max Wind Speed 24 mph    
Max Gust Speed 33 mph    
Visibility 10 miles    
Events      
Averages and records for this station are not official NWS values.
T = Trace of Precipitation, MM = Missing Value Source: NWS Daily Summary

Daily Weather History Graph

Daily Weather History Graph

Search for Another Location

Airport:

Trip Planner

Search our weather history database for the weather conditions in past years. The results will help you decide how hot, cold, wet, or windy it might be!

Date:

Astronomy

Nov. 11, 2013 Rise Set
Actual Time 7:02 AM CST 5:05 PM CST
Civil Twilight 6:33 AM CST 5:34 PM CST
Nautical Twilight 6:00 AM CST 6:07 PM CST
Astronomical Twilight 5:28 AM CST 6:39 PM CST
Moon 1:48 PM CST (11/11) 12:46 AM CST (11/11)
Length of Visible Light 11h 01m
Length of Day
10h 02m
Waxing Gibbous, 66% of the Moon is Illuminated
Nov 11
Waxing Gibbous
Nov 17
Full
Nov 25
Last Quarter
Dec 2
New
Dec 9
First Quarter

Hourly Weather History & Observations

Time (CST) Temp. Windchill Dew Point Humidity Pressure Visibility Wind Dir Wind Speed Gust Speed Precip Events Conditions
12:15 AM 44.6 °F 41.4 °F 33.8 °F 66% 30.19 in 10.0 mi South 5.8 mph - N/A   Overcast
12:35 AM 46.4 °F 42.9 °F 35.6 °F 66% 30.18 in 10.0 mi South 6.9 mph - N/A   Overcast
12:55 AM 46.4 °F 42.4 °F 35.6 °F 66% 30.17 in 10.0 mi South 8.1 mph - N/A   Overcast
1:15 AM 44.6 °F 41.4 °F 35.6 °F 71% 30.17 in 10.0 mi South 5.8 mph - N/A   Mostly Cloudy
1:35 AM 48.2 °F - 37.4 °F 66% 30.17 in 10.0 mi South 5.8 mph - N/A   Clear
1:55 AM 44.6 °F 40.2 °F 35.6 °F 71% 30.16 in 10.0 mi South 8.1 mph - N/A   Clear
2:15 AM 44.6 °F 42.2 °F 35.6 °F 71% 30.16 in 10.0 mi South 4.6 mph - N/A   Clear
2:35 AM 42.8 °F - 35.6 °F 76% 30.16 in 10.0 mi Calm Calm - N/A   Clear
2:55 AM 41.0 °F - 35.6 °F 81% 30.15 in 10.0 mi Calm Calm - N/A   Clear
3:15 AM 41.0 °F - 35.6 °F 81% 30.15 in 10.0 mi Calm Calm - N/A   Partly Cloudy
3:35 AM 41.0 °F - 35.6 °F 81% 30.14 in 10.0 mi Calm Calm - N/A   Partly Cloudy
3:55 AM 41.0 °F 38.0 °F 35.6 °F 81% 30.13 in 10.0 mi South 4.6 mph - N/A   Clear
4:15 AM 39.2 °F 35.9 °F 35.6 °F 87% 30.14 in 10.0 mi South 4.6 mph - N/A   Clear
4:35 AM 39.2 °F 35.9 °F 35.6 °F 87% 30.14 in 10.0 mi South 4.6 mph - N/A   Clear
4:55 AM 39.2 °F 35.9 °F 35.6 °F 87% 30.13 in 10.0 mi South 4.6 mph - N/A   Clear
5:15 AM 39.2 °F 35.9 °F 35.6 °F 87% 30.14 in 10.0 mi SSW 4.6 mph - N/A   Clear
5:35 AM 39.2 °F 35.9 °F 35.6 °F 87% 30.14 in 10.0 mi SSW 4.6 mph - N/A   Clear
5:55 AM 37.4 °F 33.8 °F 35.6 °F 93% 30.14 in 10.0 mi South 4.6 mph - N/A   Clear
6:15 AM 41.0 °F - 37.4 °F 87% 30.15 in 10.0 mi Calm Calm - N/A   Scattered Clouds
6:35 AM 41.0 °F - 39.2 °F 93% 30.16 in 10.0 mi Calm Calm - N/A   Overcast
6:55 AM 42.8 °F 40.1 °F 41.0 °F 93% 30.17 in 10.0 mi WSW 4.6 mph - N/A   Overcast
7:15 AM 42.8 °F - 41.0 °F 93% 30.17 in 10.0 mi Calm Calm - N/A   Overcast
7:35 AM 44.6 °F - 42.8 °F 93% 30.18 in 10.0 mi Calm Calm - N/A   Overcast
7:55 AM 46.4 °F 42.9 °F 44.6 °F 93% 30.19 in 10.0 mi WNW 6.9 mph - N/A   Overcast
8:15 AM 48.2 °F - 44.6 °F 87% 30.21 in 10.0 mi NNW 12.7 mph - N/A   Overcast
8:35 AM 44.6 °F 37.4 °F 39.2 °F 81% 30.23 in 10.0 mi North 16.1 mph - N/A   Overcast
8:55 AM 42.8 °F 33.5 °F 35.6 °F 76% 30.24 in 10.0 mi NNE 23.0 mph - N/A   Overcast
9:15 AM 42.8 °F 35.4 °F 33.8 °F 70% 30.26 in 10.0 mi NNE 15.0 mph 24.2 mph N/A   Overcast
9:35 AM 41.0 °F 31.9 °F 32.0 °F 70% 30.27 in 10.0 mi NNE 19.6 mph 29.9 mph N/A   Overcast
9:55 AM 39.2 °F 29.6 °F 32.0 °F 75% 30.29 in 10.0 mi NNE 19.6 mph 27.6 mph N/A   Overcast
10:15 AM 41.0 °F 32.2 °F 32.0 °F 70% 30.30 in 10.0 mi NNE 18.4 mph 25.3 mph N/A   Overcast
10:35 AM 41.0 °F 31.6 °F 32.0 °F 70% 30.32 in 10.0 mi NNE 20.7 mph - N/A   Overcast
10:55 AM 41.0 °F 31.9 °F 32.0 °F 70% 30.33 in 10.0 mi North 19.6 mph 25.3 mph N/A   Overcast
11:15 AM 39.2 °F 30.2 °F 32.0 °F 75% 30.33 in 10.0 mi NNE 17.3 mph - N/A   Overcast
11:35 AM 39.2 °F 30.2 °F 30.2 °F 70% 30.34 in 10.0 mi North 17.3 mph - N/A   Overcast
11:55 AM 39.2 °F 29.3 °F 30.2 °F 70% 30.34 in 10.0 mi NNE 20.7 mph 27.6 mph N/A   Overcast
12:15 PM 39.2 °F 29.8 °F 28.4 °F 65% 30.35 in 10.0 mi North 18.4 mph 26.5 mph N/A   Overcast
12:35 PM 37.4 °F 26.1 °F 26.6 °F 65% 30.36 in 10.0 mi North 24.2 mph 31.1 mph N/A   Overcast
12:55 PM 35.6 °F 24.8 °F 24.8 °F 65% 30.36 in 10.0 mi North 19.6 mph 26.5 mph N/A   Overcast
1:15 PM 35.6 °F 24.8 °F 24.8 °F 65% 30.37 in 10.0 mi North 19.6 mph 26.5 mph N/A   Overcast
1:35 PM 35.6 °F 24.8 °F 24.8 °F 65% 30.39 in 10.0 mi NNE 19.6 mph 28.8 mph N/A   Overcast
1:55 PM 35.6 °F 24.2 °F 24.8 °F 65% 30.40 in 10.0 mi North 21.9 mph - N/A   Overcast
2:15 PM 33.8 °F 21.6 °F 23.0 °F 65% 30.41 in - North 23.0 mph 28.8 mph N/A   Overcast
2:35 PM 33.8 °F 22.2 °F 23.0 °F 65% 30.42 in 10.0 mi North 20.7 mph 33.4 mph N/A   Overcast
2:55 PM 32.0 °F 19.5 °F 21.2 °F 64% 30.43 in 10.0 mi North 21.9 mph 29.9 mph N/A   Overcast
3:15 PM 30.2 °F 16.8 °F 21.2 °F 69% 30.45 in 10.0 mi North 23.0 mph 31.1 mph N/A   Mostly Cloudy
3:35 PM 30.2 °F 17.4 °F 21.2 °F 69% 30.47 in 10.0 mi NNE 20.7 mph 31.1 mph N/A   Mostly Cloudy
3:55 PM 30.2 °F 17.1 °F 21.2 °F 69% 30.48 in 10.0 mi North 21.9 mph 27.6 mph N/A   Overcast
4:15 PM 28.4 °F 15.1 °F 19.4 °F 69% 30.49 in 10.0 mi North 20.7 mph 28.8 mph N/A   Overcast
4:35 PM 26.6 °F 13.4 °F 21.2 °F 80% 30.51 in 10.0 mi North 18.4 mph - N/A   Overcast
4:55 PM 26.6 °F 13.4 °F 19.4 °F 74% 30.52 in 10.0 mi North 18.4 mph 27.6 mph N/A   Overcast
5:15 PM 26.6 °F 13.4 °F 19.4 °F 74% 30.52 in 10.0 mi North 18.4 mph 24.2 mph N/A   Overcast
5:35 PM 26.6 °F 13.4 °F 19.4 °F 74% 30.53 in 10.0 mi North 18.4 mph - N/A   Mostly Cloudy
5:55 PM 28.4 °F 15.8 °F 17.6 °F 64% 30.55 in 10.0 mi North 18.4 mph 27.6 mph N/A   Overcast
6:15 PM 26.6 °F 12.4 °F 17.6 °F 69% 30.56 in 10.0 mi North 21.9 mph 28.8 mph N/A   Overcast
6:35 PM 26.6 °F 13.8 °F 15.8 °F 64% 30.59 in 10.0 mi North 17.3 mph 27.6 mph N/A   Overcast
6:55 PM 26.6 °F 13.1 °F 17.6 °F 69% 30.60 in 10.0 mi North 19.6 mph 27.6 mph N/A   Mostly Cloudy
7:15 PM 26.6 °F 14.3 °F 15.8 °F 64% 30.60 in 10.0 mi North 16.1 mph 26.5 mph N/A   Clear
7:35 PM 24.8 °F 11.9 °F 15.8 °F 69% 30.61 in 10.0 mi North 16.1 mph 24.2 mph N/A   Clear
7:55 PM 24.8 °F 11.1 °F 15.8 °F 69% 30.62 in 10.0 mi North 18.4 mph - N/A   Partly Cloudy
8:15 PM 24.8 °F 11.5 °F 15.8 °F 69% 30.63 in 10.0 mi North 17.3 mph 25.3 mph N/A   Scattered Clouds
8:35 PM 24.8 °F 11.5 °F 15.8 °F 69% 30.64 in 10.0 mi North 17.3 mph - N/A   Partly Cloudy
8:55 PM 24.8 °F 10.3 °F 15.8 °F 69% 30.65 in 10.0 mi North 20.7 mph - N/A   Mostly Cloudy
9:15 PM 24.8 °F 10.0 °F 15.8 °F 69% 30.67 in 10.0 mi North 21.9 mph - N/A   Partly Cloudy
9:35 PM 23.0 °F 9.2 °F 15.8 °F 74% 30.68 in 10.0 mi North 17.3 mph 25.3 mph N/A   Scattered Clouds
9:55 PM 23.0 °F 8.7 °F 14.0 °F 68% 30.69 in 10.0 mi NNE 18.4 mph 28.8 mph N/A   Mostly Cloudy
10:15 PM 21.2 °F 5.6 °F 14.0 °F 74% 30.70 in 10.0 mi North 20.7 mph - N/A   Partly Cloudy
10:35 PM 21.2 °F 8.3 °F 12.2 °F 68% 30.72 in 10.0 mi North 13.8 mph 24.2 mph N/A   Clear
10:55 PM 21.2 °F 7.8 °F 12.2 °F 68% 30.72 in 10.0 mi North 15.0 mph 23.0 mph N/A   Clear
11:15 PM 19.4 °F 5.0 °F 12.2 °F 74% 30.73 in 10.0 mi North 16.1 mph - N/A   Clear
11:35 PM 19.4 °F 5.5 °F 12.2 °F 74% 30.74 in 10.0 mi North 15.0 mph 23.0 mph N/A   Clear
11:55 PM 19.4 °F 5.5 °F 12.2 °F 74% 30.75 in 10.0 mi North 15.0 mph - N/A   Clear